Time,TemperatureF,DewpointF,PressureIn,WindDirection,WindDirectionDegrees,WindSpeedMPH,WindSpeedGustMPH,Humidity,HourlyPrecipIn,Conditions,Clouds,dailyrainin,SolarRadiationWatts/m^2,SoftwareType,DateUTC
2016-07-26 00:04:00,81.0,71.9,29.97,NW,306,0.0,0.0,74,0.00,,---,0.00,0.00,VWS V14.01,2016-07-26 04:04:00,
2016-07-26 00:09:00,81.0,71.5,29.97,NW,306,0.0,0.0,73,0.00,,---,0.00,0.00,VWS V14.01,2016-07-26 04:09:00,
2016-07-26 00:14:00,81.0,71.5,29.97,NW,306,0.0,0.0,73,0.00,,---,0.00,0.00,VWS V14.01,2016-07-26 04:14:00,
2016-07-26 00:19:00,81.1,72.0,29.97,NW,306,0.0,0.0,74,0.00,,---,0.00,0.00,VWS V14.01,2016-07-26 04:19:00,
2016-07-26 00:24:00,81.0,71.9,29.97,NW,306,0.0,0.0,74,0.00,,---,0.00,0.00,VWS V14.01,2016-07-26 04:24:00,
2016-07-26 00:29:00,81.0,71.5,29.97,NW,306,0.0,0.0,73,0.00,,---,0.00,0.00,VWS V14.01,2016-07-26 04:29:00,
2016-07-26 00:34:00,81.0,71.5,29.97,NW,306,0.0,0.0,73,0.00,,---,0.00,0.00,VWS V14.01,2016-07-26 04:34:00,
2016-07-26 00:39:00,80.9,71.8,29.97,NW,306,0.0,0.0,74,0.00,,---,0.00,0.00,VWS V14.01,2016-07-26 04:39:00,
2016-07-26 00:44:00,80.6,71.6,29.97,NW,306,0.0,0.0,74,0.00,,---,0.00,0.00,VWS V14.01,2016-07-26 04:44:00,
2016-07-26 00:49:00,80.3,71.7,29.97,NW,306,0.0,0.0,75,0.00,,---,0.00,0.00,VWS V14.01,2016-07-26 04:49:00,
2016-07-26 00:54:00,80.1,71.5,29.97,NW,306,0.0,0.0,75,0.00,,---,0.00,0.00,VWS V14.01,2016-07-26 04:54:00,
2016-07-26 00:59:00,79.8,71.6,29.97,NW,306,0.0,0.0,76,0.00,,---,0.00,0.00,VWS V14.01,2016-07-26 04:59:00,
2016-07-26 01:04:00,79.8,71.6,29.97,NW,306,0.0,0.0,76,0.00,,---,0.00,0.00,VWS V14.01,2016-07-26 05:04:00,
2016-07-26 01:09:00,80.0,71.8,29.97,NW,306,0.0,0.0,76,0.00,,---,0.00,0.00,VWS V14.01,2016-07-26 05:09:00,
2016-07-26 01:14:00,80.0,71.8,29.97,NW,306,0.0,0.0,76,0.00,,---,0.00,0.00,VWS V14.01,2016-07-26 05:14:00,
2016-07-26 01:19:00,80.0,71.8,29.97,NW,306,0.0,0.0,76,0.00,,---,0.00,0.00,VWS V14.01,2016-07-26 05:19:00,
2016-07-26 01:24:00,80.0,71.8,29.98,NW,306,0.0,0.0,76,0.00,,---,0.00,0.00,VWS V14.01,2016-07-26 05:24:00,
2016-07-26 01:29:00,79.7,71.9,29.98,NW,306,0.0,0.0,77,0.00,,---,0.00,0.00,VWS V14.01,2016-07-26 05:29:00,
2016-07-26 01:34:00,79.3,72.2,29.98,NW,306,0.0,0.0,79,0.00,,---,0.00,0.00,VWS V14.01,2016-07-26 05:34:00,
2016-07-26 01:39:00,78.9,72.2,29.98,NW,306,0.0,0.0,80,0.00,,---,0.00,0.00,VWS V14.01,2016-07-26 05:39:00,
2016-07-26 01:44:00,78.6,72.3,29.98,NW,306,0.0,0.0,81,0.00,,---,0.00,0.00,VWS V14.01,2016-07-26 05:44:00,
2016-07-26 01:49:00,78.4,72.1,29.98,NW,306,0.0,0.0,81,0.00,,---,0.00,0.00,VWS V14.01,2016-07-26 05:49:00,
2016-07-26 01:53:00,77.9,72.0,29.98,North,0,0.0,0.0,82,0.00,,---,0.00,0.00,VWS V14.01,2016-07-26 05:53:00,
2016-07-26 01:54:00,78.1,72.2,29.98,NW,306,0.0,0.0,82,0.00,,---,0.00,0.00,VWS V14.01,2016-07-26 05:54:00,
2016-07-26 01:59:00,77.9,72.0,29.98,NW,306,0.0,0.0,82,0.00,,---,0.00,0.00,VWS V14.01,2016-07-26 05:59:00,
2016-07-26 02:04:00,77.9,72.0,29.98,NW,306,0.0,0.0,82,0.00,,---,0.00,0.00,VWS V14.01,2016-07-26 06:04:00,
2016-07-26 02:09:00,77.9,72.0,29.98,NW,306,0.0,0.0,82,0.00,,---,0.00,0.00,VWS V14.01,2016-07-26 06:09:00,
2016-07-26 02:14:00,78.0,72.1,29.98,NW,306,0.0,1.0,82,0.00,,---,0.00,0.00,VWS V14.01,2016-07-26 06:14:00,
2016-07-26 02:19:00,78.2,71.9,29.98,NW,306,0.0,0.0,81,0.00,,---,0.00,0.00,VWS V14.01,2016-07-26 06:19:00,
2016-07-26 02:24:00,78.3,72.0,29.98,NW,306,4.0,5.0,81,0.00,,---,0.00,0.00,VWS V14.01,2016-07-26 06:24:00,
2016-07-26 02:29:00,78.5,71.8,29.98,NW,306,2.0,5.0,80,0.00,,---,0.00,0.00,VWS V14.01,2016-07-26 06:29:00,
2016-07-26 02:34:00,78.6,71.9,29.98,NW,306,5.0,5.0,80,0.00,,---,0.00,0.00,VWS V14.01,2016-07-26 06:34:00,
2016-07-26 02:39:00,78.7,71.6,29.98,NW,306,4.0,4.0,79,0.00,,---,0.00,0.00,VWS V14.01,2016-07-26 06:39:00,
2016-07-26 02:44:00,78.7,71.6,29.98,NW,306,3.0,3.0,79,0.00,,---,0.00,0.00,VWS V14.01,2016-07-26 06:44:00,
2016-07-26 02:49:00,78.6,71.6,29.98,NW,306,0.0,4.0,79,0.00,,---,0.00,0.00,VWS V14.01,2016-07-26 06:49:00,
2016-07-26 02:54:00,78.5,71.4,29.98,NW,306,3.0,3.0,79,0.00,,---,0.00,0.00,VWS V14.01,2016-07-26 06:54:00,
2016-07-26 02:59:00,78.5,71.8,29.98,NW,306,0.0,0.0,80,0.00,,---,0.00,0.00,VWS V14.01,2016-07-26 06:59:00,
2016-07-26 03:04:00,78.4,71.7,29.98,NW,306,0.0,0.0,80,0.00,,---,0.00,0.00,VWS V14.01,2016-07-26 07:04:00,
2016-07-26 03:09:00,78.3,71.6,29.98,NW,306,0.0,0.0,80,0.00,,---,0.00,0.00,VWS V14.01,2016-07-26 07:09:00,
2016-07-26 03:14:00,78.2,71.5,29.98,NW,306,0.0,0.0,80,0.00,,---,0.00,0.00,VWS V14.01,2016-07-26 07:14:00,
2016-07-26 03:19:00,78.2,71.5,29.98,NW,306,0.0,0.0,80,0.00,,---,0.00,0.00,VWS V14.01,2016-07-26 07:19:00,
2016-07-26 03:24:00,78.2,71.5,29.98,NW,306,0.0,0.0,80,0.00,,---,0.00,0.00,VWS V14.01,2016-07-26 07:24:00,
2016-07-26 03:29:00,78.1,71.4,29.98,NW,306,0.0,0.0,80,0.00,,---,0.00,0.00,VWS V14.01,2016-07-26 07:29:00,
2016-07-26 03:34:00,78.0,71.7,29.98,NW,306,0.0,0.0,81,0.00,,---,0.00,0.00,VWS V14.01,2016-07-26 07:34:00,
2016-07-26 03:39:00,78.0,71.7,29.98,NW,306,0.0,0.0,81,0.00,,---,0.00,0.00,VWS V14.01,2016-07-26 07:39:00,
2016-07-26 03:44:00,77.9,71.6,29.98,NW,306,0.0,0.0,81,0.00,,---,0.00,0.00,VWS V14.01,2016-07-26 07:44:00,
2016-07-26 03:49:00,77.8,71.5,29.98,NW,306,0.0,0.0,81,0.00,,---,0.00,0.00,VWS V14.01,2016-07-26 07:49:00,
2016-07-26 03:54:00,77.7,71.4,29.98,NW,306,0.0,0.0,81,0.00,,---,0.00,0.00,VWS V14.01,2016-07-26 07:54:00,
2016-07-26 03:59:00,77.7,71.8,29.98,NW,306,0.0,0.0,82,0.00,,---,0.00,0.00,VWS V14.01,2016-07-26 07:59:00,
2016-07-26 04:04:00,77.6,71.7,29.98,NW,306,0.0,0.0,82,0.00,,---,0.00,0.00,VWS V14.01,2016-07-26 08:04:00,
2016-07-26 04:09:00,77.5,71.6,29.99,NW,306,0.0,0.0,82,0.00,,---,0.00,0.00,VWS V14.01,2016-07-26 08:09:00,
2016-07-26 04:14:00,77.5,71.6,29.99,NW,306,0.0,0.0,82,0.00,,---,0.00,0.00,VWS V14.01,2016-07-26 08:14:00,
2016-07-26 04:19:00,77.4,71.5,29.99,NW,306,0.0,0.0,82,0.00,,---,0.00,0.00,VWS V14.01,2016-07-26 08:19:00,
2016-07-26 04:24:00,77.3,71.4,29.99,NW,306,0.0,0.0,82,0.00,,---,0.00,0.00,VWS V14.01,2016-07-26 08:24:00,
2016-07-26 04:29:00,77.2,71.3,29.98,NW,306,0.0,0.0,82,0.00,,---,0.00,0.00,VWS V14.01,2016-07-26 08:29:00,
2016-07-26 04:34:00,77.1,71.2,29.98,NW,306,0.0,0.0,82,0.00,,---,0.00,0.00,VWS V14.01,2016-07-26 08:34:00,
2016-07-26 04:39:00,77.0,71.1,29.98,NW,306,0.0,0.0,82,0.00,,---,0.00,0.00,VWS V14.01,2016-07-26 08:39:00,
2016-07-26 04:44:00,76.9,71.0,29.98,NW,306,0.0,0.0,82,0.00,,---,0.00,0.00,VWS V14.01,2016-07-26 08:44:00,
2016-07-26 04:49:00,76.8,70.9,29.98,NW,306,0.0,0.0,82,0.00,,---,0.00,0.00,VWS V14.01,2016-07-26 08:49:00,
2016-07-26 04:54:00,76.8,71.2,29.98,NW,306,0.0,0.0,83,0.00,,---,0.00,0.00,VWS V14.01,2016-07-26 08:54:00,
2016-07-26 04:59:00,76.8,71.2,29.98,NW,306,0.0,0.0,83,0.00,,---,0.00,0.00,VWS V14.01,2016-07-26 08:59:00,
2016-07-26 05:04:00,76.7,71.2,29.98,NW,306,0.0,0.0,83,0.00,,---,0.00,0.00,VWS V14.01,2016-07-26 09:04:00,
2016-07-26 05:09:00,76.6,70.7,29.99,NW,306,0.0,0.0,82,0.00,,---,0.00,0.00,VWS V14.01,2016-07-26 09:09:00,
2016-07-26 05:14:00,76.6,71.1,29.99,NW,306,0.0,0.0,83,0.00,,---,0.00,0.00,VWS V14.01,2016-07-26 09:14:00,
2016-07-26 05:19:00,76.5,71.0,29.99,NW,306,0.0,0.0,83,0.00,,---,0.00,0.00,VWS V14.01,2016-07-26 09:19:00,
2016-07-26 05:24:00,76.4,70.9,29.99,NW,306,0.0,0.0,83,0.00,,---,0.00,0.00,VWS V14.01,2016-07-26 09:24:00,
2016-07-26 05:29:00,76.3,70.8,29.99,NW,306,0.0,0.0,83,0.00,,---,0.00,0.00,VWS V14.01,2016-07-26 09:29:00,
2016-07-26 05:34:00,76.2,70.7,29.99,NW,306,0.0,0.0,83,0.00,,---,0.00,0.00,VWS V14.01,2016-07-26 09:34:00,
2016-07-26 05:39:00,76.2,70.7,29.99,NW,306,0.0,0.0,83,0.00,,---,0.00,0.00,VWS V14.01,2016-07-26 09:39:00,
2016-07-26 05:44:00,76.2,70.3,30.00,NW,306,0.0,0.0,82,0.00,,---,0.00,0.00,VWS V14.01,2016-07-26 09:44:00,
2016-07-26 05:49:00,76.1,70.6,30.00,NW,306,0.0,0.0,83,0.00,,---,0.00,0.00,VWS V14.01,2016-07-26 09:49:00,
2016-07-26 05:54:00,76.0,70.5,30.00,NW,306,0.0,0.0,83,0.00,,---,0.00,0.00,VWS V14.01,2016-07-26 09:54:00,
2016-07-26 05:59:00,76.0,70.5,30.00,NW,306,0.0,0.0,83,0.00,,---,0.00,0.00,VWS V14.01,2016-07-26 09:59:00,
2016-07-26 06:04:00,76.0,70.5,30.00,NW,306,0.0,0.0,83,0.00,,---,0.00,0.00,VWS V14.01,2016-07-26 10:04:00,
2016-07-26 06:09:00,75.9,70.4,30.01,NW,306,0.0,0.0,83,0.00,,---,0.00,0.00,VWS V14.01,2016-07-26 10:09:00,
2016-07-26 06:14:00,75.9,70.4,30.01,NW,306,0.0,0.0,83,0.00,,---,0.00,0.00,VWS V14.01,2016-07-26 10:14:00,
2016-07-26 06:19:00,75.9,70.4,30.01,NW,306,0.0,0.0,83,0.00,,---,0.00,0.00,VWS V14.01,2016-07-26 10:19:00,
2016-07-26 06:24:00,75.9,70.4,30.01,NW,306,0.0,0.0,83,0.00,,---,0.00,0.00,VWS V14.01,2016-07-26 10:24:00,
2016-07-26 06:29:00,75.9,70.4,30.01,NW,306,0.0,0.0,83,0.00,,---,0.00,0.00,VWS V14.01,2016-07-26 10:29:00,
2016-07-26 06:34:00,75.8,70.3,30.01,NW,306,0.0,0.0,83,0.00,,---,0.00,0.00,VWS V14.01,2016-07-26 10:34:00,
2016-07-26 06:39:00,75.8,70.3,30.01,NW,306,0.0,0.0,83,0.00,,---,0.00,5.00,VWS V14.01,2016-07-26 10:39:00,
2016-07-26 06:44:00,75.9,70.4,30.02,NW,306,0.0,0.0,83,0.00,,---,0.00,11.00,VWS V14.01,2016-07-26 10:44:00,
2016-07-26 06:49:00,75.8,70.3,30.01,NW,306,0.0,0.0,83,0.00,,---,0.00,12.00,VWS V14.01,2016-07-26 10:49:00,
2016-07-26 06:54:00,75.8,70.3,30.02,NW,306,0.0,0.0,83,0.00,,---,0.00,16.00,VWS V14.01,2016-07-26 10:54:00,
2016-07-26 06:59:00,75.8,70.3,30.01,NW,306,0.0,0.0,83,0.00,,---,0.00,18.00,VWS V14.01,2016-07-26 10:59:00,
2016-07-26 07:04:00,75.8,70.3,30.02,NW,306,0.0,0.0,83,0.00,,---,0.00,18.00,VWS V14.01,2016-07-26 11:04:00,
2016-07-26 07:09:00,75.8,70.3,30.02,NW,306,0.0,0.0,83,0.00,,---,0.00,18.00,VWS V14.01,2016-07-26 11:09:00,
2016-07-26 07:14:00,75.7,70.2,30.02,NW,306,0.0,0.0,83,0.00,,---,0.00,18.00,VWS V14.01,2016-07-26 11:14:00,
2016-07-26 07:19:00,75.8,70.3,30.02,NW,306,0.0,0.0,83,0.00,,---,0.00,23.00,VWS V14.01,2016-07-26 11:19:00,
2016-07-26 07:24:00,75.8,70.3,30.02,NW,306,0.0,0.0,83,0.00,,---,0.00,26.00,VWS V14.01,2016-07-26 11:24:00,
2016-07-26 07:29:00,75.9,70.4,30.02,NW,306,0.0,0.0,83,0.00,,---,0.00,32.00,VWS V14.01,2016-07-26 11:29:00,
2016-07-26 07:34:00,75.9,70.4,30.02,NW,306,0.0,0.0,83,0.00,,---,0.00,39.00,VWS V14.01,2016-07-26 11:34:00,
2016-07-26 07:39:00,75.9,70.0,30.02,NW,306,0.0,0.0,82,0.00,,---,0.00,49.00,VWS V14.01,2016-07-26 11:39:00,
2016-07-26 07:44:00,75.9,70.0,30.02,NW,306,0.0,0.0,82,0.00,,---,0.00,51.00,VWS V14.01,2016-07-26 11:44:00,
2016-07-26 07:49:00,76.0,70.1,30.02,NW,306,0.0,0.0,82,0.00,,---,0.00,54.00,VWS V14.01,2016-07-26 11:49:00,
2016-07-26 07:55:00,76.1,70.2,30.02,NW,306,0.0,0.0,82,0.00,,---,0.00,63.00,VWS V14.01,2016-07-26 11:55:00,
2016-07-26 07:59:00,76.2,69.9,30.02,NW,306,0.0,0.0,81,0.00,,---,0.00,86.00,VWS V14.01,2016-07-26 11:59:00,
2016-07-26 08:05:00,76.6,70.0,30.02,NW,306,0.0,0.0,80,0.00,,---,0.00,104.00,VWS V14.01,2016-07-26 12:05:00,
2016-07-26 08:10:00,76.9,69.9,30.02,NW,306,0.0,0.0,79,0.00,,---,0.00,151.00,VWS V14.01,2016-07-26 12:10:00,
2016-07-26 08:15:00,77.3,69.9,30.02,NW,306,0.0,0.0,78,0.00,,---,0.00,239.00,VWS V14.01,2016-07-26 12:15:00,
2016-07-26 08:20:00,77.9,70.5,30.02,NW,306,0.0,0.0,78,0.00,,---,0.00,262.00,VWS V14.01,2016-07-26 12:20:00,
2016-07-26 08:25:00,78.5,70.3,30.02,NW,306,0.0,0.0,76,0.00,,---,0.00,246.00,VWS V14.01,2016-07-26 12:25:00,
2016-07-26 08:30:00,79.1,70.5,30.02,NW,306,0.0,0.0,75,0.00,,---,0.00,174.00,VWS V14.01,2016-07-26 12:30:00,
2016-07-26 08:35:00,79.2,69.8,30.02,NW,306,3.0,5.0,73,0.00,,---,0.00,272.00,VWS V14.01,2016-07-26 12:35:00,
2016-07-26 08:40:00,79.3,69.9,30.02,NW,306,0.0,4.0,73,0.00,,---,0.00,190.00,VWS V14.01,2016-07-26 12:40:00,
2016-07-26 08:45:00,79.3,69.9,30.02,NW,306,0.0,3.0,73,0.00,,---,0.00,190.00,VWS V14.01,2016-07-26 12:45:00,
2016-07-26 08:50:00,79.6,70.2,30.02,NW,306,0.0,0.0,73,0.00,,---,0.00,357.00,VWS V14.01,2016-07-26 12:50:00,
2016-07-26 08:55:00,79.9,70.1,30.01,NW,306,4.0,4.0,72,0.00,,---,0.00,255.00,VWS V14.01,2016-07-26 12:55:00,
2016-07-26 09:00:00,80.0,69.8,30.01,NE,37,4.0,5.0,71,0.00,,---,0.00,244.00,VWS V14.01,2016-07-26 13:00:00,
2016-07-26 09:05:00,80.0,69.8,30.01,NE,39,2.0,3.0,71,0.00,,---,0.00,241.00,VWS V14.01,2016-07-26 13:05:00,
2016-07-26 09:10:00,80.0,69.8,30.02,NE,40,3.0,3.0,71,0.00,,---,0.00,229.00,VWS V14.01,2016-07-26 13:10:00,
2016-07-26 09:15:00,80.0,69.8,30.02,NE,40,0.0,4.0,71,0.00,,---,0.00,248.00,VWS V14.01,2016-07-26 13:15:00,
2016-07-26 09:20:00,80.2,69.9,30.02,NE,40,3.0,4.0,71,0.00,,---,0.00,223.00,VWS V14.01,2016-07-26 13:20:00,
2016-07-26 09:25:00,80.2,69.9,30.02,NE,41,2.0,4.0,71,0.00,,---,0.00,243.00,VWS V14.01,2016-07-26 13:25:00,
2016-07-26 09:30:00,80.3,70.1,30.02,NE,41,0.0,4.0,71,0.00,,---,0.00,264.00,VWS V14.01,2016-07-26 13:30:00,
2016-07-26 09:35:00,80.4,69.7,30.02,NE,41,1.0,3.0,70,0.00,,---,0.00,308.00,VWS V14.01,2016-07-26 13:35:00,
2016-07-26 09:40:00,80.6,70.3,30.02,NE,42,0.0,3.0,71,0.00,,---,0.00,299.00,VWS V14.01,2016-07-26 13:40:00,
2016-07-26 09:45:00,80.8,70.1,30.02,NE,43,1.0,4.0,70,0.00,,---,0.00,262.00,VWS V14.01,2016-07-26 13:45:00,
2016-07-26 09:50:00,80.9,70.2,30.02,NE,43,3.0,3.0,70,0.00,,---,0.00,230.00,VWS V14.01,2016-07-26 13:50:00,
2016-07-26 09:55:00,80.9,70.2,30.02,NE,43,0.0,0.0,70,0.00,,---,0.00,213.00,VWS V14.01,2016-07-26 13:55:00,
2016-07-26 10:00:00,81.0,70.3,30.02,NE,43,0.0,0.0,70,0.00,,---,0.00,227.00,VWS V14.01,2016-07-26 14:00:00,
2016-07-26 10:05:00,81.0,69.9,30.02,NE,43,2.0,4.0,69,0.00,,---,0.00,257.00,VWS V14.01,2016-07-26 14:05:00,
2016-07-26 10:10:00,81.1,70.0,30.02,NE,43,0.0,2.0,69,0.00,,---,0.00,290.00,VWS V14.01,2016-07-26 14:10:00,
2016-07-26 10:15:00,81.4,70.3,30.02,NE,43,1.0,1.0,69,0.00,,---,0.00,302.00,VWS V14.01,2016-07-26 14:15:00,
2016-07-26 10:20:00,81.7,70.6,30.02,NE,43,2.0,4.0,69,0.00,,---,0.00,218.00,VWS V14.01,2016-07-26 14:20:00,
2016-07-26 10:25:00,81.4,70.3,30.02,NE,43,0.0,2.0,69,0.00,,---,0.00,230.00,VWS V14.01,2016-07-26 14:25:00,
2016-07-26 10:30:00,81.3,70.6,30.02,NE,43,0.0,2.0,70,0.00,,---,0.00,234.00,VWS V14.01,2016-07-26 14:30:00,
2016-07-26 10:35:00,81.4,70.7,30.02,NE,44,1.0,3.0,70,0.00,,---,0.00,236.00,VWS V14.01,2016-07-26 14:35:00,
2016-07-26 10:45:00,81.1,70.4,30.02,NE,42,1.0,1.0,70,0.00,,---,0.00,248.00,VWS V14.01,2016-07-26 14:45:00,
2016-07-26 10:50:00,81.0,70.3,30.03,NE,42,0.0,0.0,70,0.00,,---,0.00,311.00,VWS V14.01,2016-07-26 14:50:00,
2016-07-26 10:55:00,81.1,70.4,30.02,NE,42,3.0,3.0,70,0.00,,---,0.00,367.00,VWS V14.01,2016-07-26 14:55:00,
2016-07-26 11:00:00,81.5,70.4,30.03,NE,42,0.0,0.0,69,0.00,,---,0.00,469.00,VWS V14.01,2016-07-26 15:00:00,
2016-07-26 11:05:00,82.0,70.8,30.03,NE,42,0.0,0.0,69,0.00,,---,0.00,343.00,VWS V14.01,2016-07-26 15:05:00,
2016-07-26 11:10:00,82.3,70.7,30.03,NE,42,1.0,2.0,68,0.00,,---,0.00,287.00,VWS V14.01,2016-07-26 15:10:00,
2016-07-26 11:15:00,82.5,70.9,30.03,NE,42,1.0,1.0,68,0.00,,---,0.00,285.00,VWS V14.01,2016-07-26 15:15:00,
2016-07-26 11:20:00,82.7,71.1,30.03,NE,42,0.0,0.0,68,0.00,,---,0.00,271.00,VWS V14.01,2016-07-26 15:20:00,
2016-07-26 11:25:00,82.4,71.2,30.03,NE,42,3.0,3.0,69,0.00,,---,0.00,269.00,VWS V14.01,2016-07-26 15:25:00,
2016-07-26 11:30:00,81.8,71.1,30.03,NE,42,4.0,4.0,70,0.00,,---,0.00,248.00,VWS V14.01,2016-07-26 15:30:00,
2016-07-26 11:35:00,81.1,70.8,30.03,NE,42,4.0,4.0,71,0.00,,---,0.00,214.00,VWS V14.01,2016-07-26 15:35:00,
2016-07-26 11:40:00,80.7,71.2,30.03,NE,42,2.0,2.0,73,0.00,,---,0.00,216.00,VWS V14.01,2016-07-26 15:40:00,
2016-07-26 11:45:00,80.2,70.8,30.03,NE,42,4.0,5.0,73,0.00,,---,0.00,181.00,VWS V14.01,2016-07-26 15:45:00,
2016-07-26 11:50:00,79.8,71.2,30.03,NE,42,3.0,4.0,75,0.00,,---,0.00,158.00,VWS V14.01,2016-07-26 15:50:00,
2016-07-26 11:55:00,79.4,71.2,30.03,NE,42,4.0,4.0,76,0.00,,---,0.00,153.00,VWS V14.01,2016-07-26 15:55:00,
2016-07-26 12:00:00,79.4,71.2,30.03,NE,42,2.0,3.0,76,0.00,,---,0.00,144.00,VWS V14.01,2016-07-26 16:00:00,
2016-07-26 12:05:00,79.4,71.6,30.03,NE,42,5.0,5.0,77,0.00,,---,0.00,144.00,VWS V14.01,2016-07-26 16:05:00,
2016-07-26 12:10:00,79.3,71.5,30.03,NE,42,3.0,4.0,77,0.00,,---,0.00,158.00,VWS V14.01,2016-07-26 16:10:00,
2016-07-26 12:15:00,79.0,71.2,30.03,NE,42,4.0,5.0,77,0.00,,---,0.00,188.00,VWS V14.01,2016-07-26 16:15:00,
2016-07-26 12:20:00,78.9,71.5,30.03,NE,42,4.0,5.0,78,0.00,,---,0.00,218.00,VWS V14.01,2016-07-26 16:20:00,
2016-07-26 12:25:00,78.8,71.7,30.03,NE,42,1.0,3.0,79,0.00,,---,0.00,239.00,VWS V14.01,2016-07-26 16:25:00,
2016-07-26 12:30:00,79.0,72.3,30.03,NE,42,2.0,6.0,80,0.00,,---,0.00,211.00,VWS V14.01,2016-07-26 16:30:00,
2016-07-26 12:35:00,78.9,72.2,30.02,NE,42,6.0,6.0,80,0.00,,---,0.00,186.00,VWS V14.01,2016-07-26 16:35:00,
2016-07-26 12:40:00,78.8,72.1,30.03,NE,41,4.0,6.0,80,0.00,,---,0.00,167.00,VWS V14.01,2016-07-26 16:40:00,
2016-07-26 12:45:00,78.5,71.8,30.03,NE,39,1.0,5.0,80,0.00,,---,0.00,144.00,VWS V14.01,2016-07-26 16:45:00,
2016-07-26 12:50:00,78.5,72.2,30.02,NE,39,2.0,3.0,81,0.00,,---,0.00,135.00,VWS V14.01,2016-07-26 16:50:00,
2016-07-26 12:55:00,78.4,72.4,30.02,NE,39,5.0,5.0,82,0.00,,---,0.00,174.00,VWS V14.01,2016-07-26 16:55:00,
2016-07-26 13:00:00,78.3,72.4,30.02,NE,38,4.0,5.0,82,0.00,,---,0.00,183.00,VWS V14.01,2016-07-26 17:00:00,
2016-07-26 13:05:00,78.2,72.3,30.02,NE,37,4.0,5.0,82,0.00,,---,0.00,163.00,VWS V14.01,2016-07-26 17:05:00,
2016-07-26 13:10:00,78.1,72.2,30.02,NE,37,1.0,1.0,82,0.00,,---,0.00,162.00,VWS V14.01,2016-07-26 17:10:00,
2016-07-26 13:15:00,78.0,72.4,30.02,NE,36,3.0,4.0,83,0.00,,---,0.00,299.00,VWS V14.01,2016-07-26 17:15:00,
2016-07-26 13:20:00,78.2,73.0,30.02,NE,36,2.0,5.0,84,0.00,,---,0.00,587.00,VWS V14.01,2016-07-26 17:20:00,
2016-07-26 13:25:00,79.1,73.5,30.02,NE,36,0.0,3.0,83,0.00,,---,0.00,473.00,VWS V14.01,2016-07-26 17:25:00,
2016-07-26 13:30:00,79.6,73.6,30.02,NE,36,0.0,4.0,82,0.00,,---,0.00,367.00,VWS V14.01,2016-07-26 17:30:00,
2016-07-26 13:35:00,79.3,72.6,30.01,NNE,33,3.0,10.0,80,0.00,,---,0.00,299.00,VWS V14.01,2016-07-26 17:35:00,
2016-07-26 13:40:00,79.3,72.6,30.01,NE,34,1.0,4.0,80,0.00,,---,0.00,218.00,VWS V14.01,2016-07-26 17:40:00,
2016-07-26 13:46:00,79.4,72.7,30.01,NE,34,2.0,2.0,80,0.00,,---,0.00,153.00,VWS V14.01,2016-07-26 17:46:00,
2016-07-26 13:51:00,79.3,72.2,30.01,NNE,33,4.0,4.0,79,0.00,,---,0.00,98.00,VWS V14.01,2016-07-26 17:51:00,
2016-07-26 13:56:00,78.8,72.1,30.00,NNE,32,2.0,7.0,80,0.00,,---,0.00,65.00,VWS V14.01,2016-07-26 17:56:00,
2016-07-26 14:01:00,78.4,71.7,30.00,NNE,32,6.0,6.0,80,0.00,,---,0.00,46.00,VWS V14.01,2016-07-26 18:01:00,
2016-07-26 14:06:00,78.0,71.7,30.00,NNE,32,0.0,0.0,81,0.01,,---,0.01,42.00,VWS V14.01,2016-07-26 18:06:00,
2016-07-26 14:11:00,77.9,72.3,30.01,NNE,32,0.0,0.0,83,0.02,,---,0.02,39.00,VWS V14.01,2016-07-26 18:11:00,
2016-07-26 14:16:00,77.8,72.2,30.02,NNE,32,0.0,1.0,83,0.02,,---,0.02,35.00,VWS V14.01,2016-07-26 18:16:00,
2016-07-26 14:21:00,77.6,72.7,30.02,NNE,32,0.0,0.0,85,0.03,,---,0.03,35.00,VWS V14.01,2016-07-26 18:21:00,
2016-07-26 14:26:00,77.3,72.4,30.02,NNE,32,3.0,5.0,85,0.03,,---,0.03,39.00,VWS V14.01,2016-07-26 18:26:00,
2016-07-26 14:31:00,76.8,71.9,30.01,NNE,32,0.0,0.0,85,0.03,,---,0.03,46.00,VWS V14.01,2016-07-26 18:31:00,
2016-07-26 14:36:00,76.6,72.1,30.01,NNE,32,0.0,0.0,86,0.03,,---,0.03,70.00,VWS V14.01,2016-07-26 18:36:00,
2016-07-26 14:41:00,76.4,72.2,30.01,NNE,32,0.0,0.0,87,0.03,,---,0.03,104.00,VWS V14.01,2016-07-26 18:41:00,
2016-07-26 14:46:00,76.3,72.5,30.01,NNE,32,0.0,0.0,88,0.04,,---,0.04,160.00,VWS V14.01,2016-07-26 18:46:00,
2016-07-26 14:51:00,76.4,72.6,30.01,NNE,32,0.0,1.0,88,0.04,,---,0.04,216.00,VWS V14.01,2016-07-26 18:51:00,
2016-07-26 14:56:00,76.8,73.3,30.01,NNE,32,0.0,0.0,89,0.04,,---,0.04,304.00,VWS V14.01,2016-07-26 18:56:00,
2016-07-26 15:01:00,77.4,73.9,30.01,NNE,32,0.0,0.0,89,0.04,,---,0.04,538.00,VWS V14.01,2016-07-26 19:01:00,
2016-07-26 15:06:00,78.8,75.3,30.00,NNE,32,0.0,0.0,89,0.03,,---,0.04,719.00,VWS V14.01,2016-07-26 19:06:00,
2016-07-26 15:11:00,79.4,74.5,29.99,NNE,32,0.0,5.0,85,0.03,,---,0.04,571.00,VWS V14.01,2016-07-26 19:11:00,
2016-07-26 15:16:00,80.3,74.7,29.99,NNE,32,0.0,0.0,83,0.02,,---,0.04,997.00,VWS V14.01,2016-07-26 19:16:00,
2016-07-26 15:19:00,81.8,75.4,29.99,NNE,32,0.0,0.0,81,0.01,,---,0.04,986.00,VWS V14.01,2016-07-26 19:19:00,
2016-07-26 15:25:00,82.8,73.7,29.99,NNE,32,0.0,2.0,74,0.01,,---,0.04,461.00,VWS V14.01,2016-07-26 19:25:00,
2016-07-26 15:29:00,83.1,73.6,29.99,NNE,32,2.0,4.0,73,0.01,,---,0.04,680.00,VWS V14.01,2016-07-26 19:29:00,
2016-07-26 15:35:00,83.4,73.8,29.99,NNE,32,0.0,0.0,73,0.01,,---,0.04,754.00,VWS V14.01,2016-07-26 19:35:00,
2016-07-26 15:40:00,83.5,73.1,29.99,NNE,32,0.0,0.0,71,0.01,,---,0.04,243.00,VWS V14.01,2016-07-26 19:40:00,
2016-07-26 15:45:00,83.1,72.7,29.98,NNE,32,4.0,4.0,71,0.00,,---,0.04,243.00,VWS V14.01,2016-07-26 19:45:00,
2016-07-26 15:50:00,82.6,73.1,29.99,NNE,32,0.0,2.0,73,0.00,,---,0.04,359.00,VWS V14.01,2016-07-26 19:50:00,
2016-07-26 15:55:00,82.4,73.3,29.99,NNE,32,0.0,4.0,74,0.00,,---,0.04,408.00,VWS V14.01,2016-07-26 19:55:00,
2016-07-26 16:00:00,82.5,73.4,29.99,NNE,32,3.0,5.0,74,0.00,,---,0.04,461.00,VWS V14.01,2016-07-26 20:00:00,
2016-07-26 16:05:00,82.9,73.8,29.99,NNE,32,0.0,0.0,74,0.00,,---,0.04,566.00,VWS V14.01,2016-07-26 20:05:00,
2016-07-26 16:10:00,83.5,73.9,29.99,NNE,32,0.0,2.0,73,0.00,,---,0.04,346.00,VWS V14.01,2016-07-26 20:10:00,
2016-07-26 16:15:00,83.6,73.2,29.99,NNE,32,0.0,0.0,71,0.00,,---,0.04,329.00,VWS V14.01,2016-07-26 20:15:00,
2016-07-26 16:20:00,83.4,73.4,29.99,NNE,32,0.0,0.0,72,0.00,,---,0.04,332.00,VWS V14.01,2016-07-26 20:20:00,
2016-07-26 16:25:00,83.6,73.2,29.99,NNE,32,2.0,3.0,71,0.00,,---,0.04,480.00,VWS V14.01,2016-07-26 20:25:00,
2016-07-26 16:30:00,83.8,72.6,29.99,NNE,32,0.0,2.0,69,0.00,,---,0.04,499.00,VWS V14.01,2016-07-26 20:30:00,
2016-07-26 16:35:00,84.6,72.9,29.98,NNE,32,0.0,0.0,68,0.00,,---,0.04,717.00,VWS V14.01,2016-07-26 20:35:00,
2016-07-26 16:40:00,85.8,73.1,29.98,NNE,32,0.0,2.0,66,0.00,,---,0.04,754.00,VWS V14.01,2016-07-26 20:40:00,
2016-07-26 16:45:00,86.8,73.2,29.98,NNE,32,3.0,5.0,64,0.00,,---,0.04,318.00,VWS V14.01,2016-07-26 20:45:00,
2016-07-26 16:50:00,86.5,72.4,29.98,NNE,32,0.0,2.0,63,0.00,,---,0.04,954.00,VWS V14.01,2016-07-26 20:50:00,
2016-07-26 16:55:00,86.8,72.7,29.98,NNE,32,0.0,4.0,63,0.00,,---,0.04,596.00,VWS V14.01,2016-07-26 20:55:00,
2016-07-26 17:00:00,86.5,72.9,29.98,NNE,32,0.0,0.0,64,0.00,,---,0.04,487.00,VWS V14.01,2016-07-26 21:00:00,
2016-07-26 17:05:00,85.7,72.6,29.98,NNE,32,0.0,4.0,65,0.00,,---,0.04,197.00,VWS V14.01,2016-07-26 21:05:00,
2016-07-26 17:10:00,85.0,72.8,29.98,NNE,32,0.0,0.0,67,0.00,,---,0.04,281.00,VWS V14.01,2016-07-26 21:10:00,
2016-07-26 17:15:00,84.5,72.8,29.98,NNE,32,0.0,0.0,68,0.00,,---,0.04,383.00,VWS V14.01,2016-07-26 21:15:00,
2016-07-26 17:20:00,84.8,73.5,29.98,NNE,32,0.0,2.0,69,0.00,,---,0.04,550.00,VWS V14.01,2016-07-26 21:20:00,
2016-07-26 17:25:00,85.7,73.5,29.97,NNE,32,0.0,2.0,67,0.00,,---,0.04,496.00,VWS V14.01,2016-07-26 21:25:00,
2016-07-26 17:30:00,86.1,73.0,29.97,NNE,32,0.0,0.0,65,0.00,,---,0.04,652.00,VWS V14.01,2016-07-26 21:30:00,
2016-07-26 17:35:00,86.2,73.5,29.97,NNE,32,0.0,0.0,66,0.00,,---,0.04,265.00,VWS V14.01,2016-07-26 21:35:00,
2016-07-26 17:40:00,86.2,73.1,29.97,NNE,32,3.0,3.0,65,0.00,,---,0.04,381.00,VWS V14.01,2016-07-26 21:40:00,
2016-07-26 17:45:00,85.7,72.6,29.97,NNE,32,0.0,0.0,65,0.00,,---,0.04,148.00,VWS V14.01,2016-07-26 21:45:00,
2016-07-26 17:50:00,84.8,72.6,29.98,NNE,32,3.0,4.0,67,0.00,,---,0.04,132.00,VWS V14.01,2016-07-26 21:50:00,
2016-07-26 17:55:00,84.4,72.7,29.98,NNE,32,2.0,2.0,68,0.00,,---,0.04,199.00,VWS V14.01,2016-07-26 21:55:00,
2016-07-26 18:00:00,84.2,72.9,29.98,NNE,32,0.0,0.0,69,0.00,,---,0.04,260.00,VWS V14.01,2016-07-26 22:00:00,
2016-07-26 18:05:00,84.1,72.8,29.97,NNE,32,0.0,1.0,69,0.00,,---,0.04,202.00,VWS V14.01,2016-07-26 22:05:00,
2016-07-26 18:10:00,84.1,73.3,29.97,NNE,32,2.0,2.0,70,0.00,,---,0.04,267.00,VWS V14.01,2016-07-26 22:10:00,
2016-07-26 18:15:00,84.1,72.8,29.97,NNE,32,0.0,1.0,69,0.00,,---,0.04,169.00,VWS V14.01,2016-07-26 22:15:00,
2016-07-26 18:20:00,84.1,72.8,29.97,NNE,32,0.0,0.0,69,0.00,,---,0.04,185.00,VWS V14.01,2016-07-26 22:20:00,
2016-07-26 18:25:00,84.0,72.7,29.97,NNE,32,0.0,0.0,69,0.00,,---,0.04,186.00,VWS V14.01,2016-07-26 22:25:00,
2016-07-26 18:30:00,84.0,72.7,29.97,NNE,32,0.0,0.0,69,0.00,,---,0.04,181.00,VWS V14.01,2016-07-26 22:30:00,
2016-07-26 18:35:00,84.0,72.7,29.97,NNE,32,0.0,0.0,69,0.00,,---,0.04,165.00,VWS V14.01,2016-07-26 22:35:00,
2016-07-26 18:40:00,83.9,72.2,29.97,NNE,32,1.0,3.0,68,0.00,,---,0.04,179.00,VWS V14.01,2016-07-26 22:40:00,
2016-07-26 18:45:00,83.8,72.6,29.97,NNE,32,1.0,1.0,69,0.00,,---,0.04,160.00,VWS V14.01,2016-07-26 22:45:00,
2016-07-26 18:50:00,83.6,72.4,29.97,NNE,32,2.0,3.0,69,0.00,,---,0.04,130.00,VWS V14.01,2016-07-26 22:50:00,
2016-07-26 18:55:00,83.3,72.5,29.97,NNE,32,0.0,2.0,70,0.00,,---,0.04,120.00,VWS V14.01,2016-07-26 22:55:00,
2016-07-26 19:00:00,83.1,72.3,29.97,NNE,32,0.0,0.0,70,0.00,,---,0.04,155.00,VWS V14.01,2016-07-26 23:00:00,